COSMOS 2251 DEB, 35891

Orbit data source: Space-Track

COSMOS 2251 DEB, 35891 is space debris in LEO originally from a launch on Wed, 16 Jun 1993 UTC launched from the Plesetsk Missile And Space Complex (PKMTR). The debris from Iridium 33, an American commercial communications satellite, has been tracked extensively since its accidental collision with the defunct Russian satellite Cosmos 2251 in 2009. This event, occurring at high speed in low Earth orbit (LEO), generated thousands of pieces of space debris, significantly increasing the risk of further collisions. The Iridium 33 debris cloud has impacted space traffic management and orbital debris mitigation strategies, making it a subject of ongoing study in space situational awareness.

Loading next visibility...
Identifier
35891, 1993-036AUE
Orbit
LEO
Country
Flag of CISCIS
Related business
Manufacturer
Unknown
Mission
Spacecraft
Bus & Motor
Unknown
Mass
Unknown
Launch date (UTC)
1993-06-16 (33 years ago)
Launch vehicle
Unknown
Launch site
Plesetsk Missile And Space Complex (PKMTR)
Object type
Payload
Rocket body
Debris
Shape & HBR
Unknown shape, 0.1 m
Radar Cross Section
Small (<0.1 m²)

Expand to show TLE details & history
Last TLE update: 1 week ago

TLE from 1 week ago
0 COSMOS 2251 DEB
1 35891U 93036AUE 26200.72282970  .00080503  00000-0  87311-3 0  9993
2 35891  73.9791 334.5341 0024210  45.5795 314.7400 15.62804560706055
Epoch: 2026-07-19T17:20Z
TLE epoch observation values (Epoch: 2026-07-19T17:20:52.486Z)
Latitude
-0°
Longitude
136.79827°
Altitude
370.821 km
Speed
7.694 km/s
True Right ascension
22h 18m 08s
True Declination
0° 00' 00"
Sunlit
Object was in full shadow at epoch
Visualization orbit readout
Latitude
Unknown
Longitude
Unknown
Altitude
Unknown
Speed
Unknown
Apparent Right ascension
Unknown
Apparent Declination
Unknown
Sunlit
N/A
Visualization observer readout
Local Sidereal Time
12:54:33
Azimuth
Unknown
Elevation
Unknown
Doppler factor
Unknown
Orbital elements
Apogee altitude
393.405 km
Perigee altitude
360.697 km
Semi-major axis
6,755.188 km
Eccentricity
0.00242
Inclination
73.9791°
RAAN
334.5341°
Arg. of periapsis
45.5795°
True anomaly
314.54252°
Mean anomaly
314.74°
Eccentric anomaly
314.6413°
Mean motion
3.90919 °/min
Orbital period
92.09 mins
BSTAR
0.00087311

Documentation

Showing up to 5 results
|